Regional Weather Roundup
Issued by NWS Northern Indiana

Home | Current Version | Previous Version | Graphics & Text | Print | Product List | Glossary On
Versions: 1 2 3 4 5 6 7 8 9 10 11 12 13 14 15 16 17 18 19 20 21 22 23 24 25 26 27 28 29 30 31 32 33 34 35 36 37 38 39 40 41 42 43 44 45 46 47 48 49 50
000
ASUS43 KIWX 201510
RWRIWX

KIWX WEATHER ROUNDUP
NATIONAL WEATHER SERVICE NORTHERN INDIANA
1000 AM EST FRI JAN 20 2017

NOTE: "FAIR" INDICATES FEW OR NO CLOUDS BELOW 12,000 FEET WITH NO
SIGNIFICANT WEATHER AND/OR OBSTRUCTIONS TO VISIBILITY.

* THESE STATIONS ARE NOT UNDER NWS QUALITY CONTROL. THEY ALSO MAY NOT
  REPORT WEATHER SUCH AS PRECIPITATION OR FOG.

INZ001>027-201600-
NORTHERN INDIANA

CITY           SKY/WX    TMP DP  RH WIND       PRES   REMARKS
GARY*          CLOUDY    39  39 100 CALM      29.65R FOG
VALPARAISO     FOG       39  39 100 CALM      29.64R VSB 1
LAPORTE*       CLOUDY    37  37  98 E5        29.63R FOG
KNOX*          CLOUDY    37  32  81 CALM      29.63R VSB 1
SOUTH BEND     FOG       37  37 100 SE7       29.63R VSB 1
ELKHART*       CLOUDY    37  36  93 E6        29.63R FOG
GOSHEN         LGT RAIN  37  35  92 E3        29.63S VSB 3/4
ROCHESTER*     FOG       41  41 100 CALM      29.63S VSB 1
WARSAW*        DRIZZLE   37  34  87 CALM      29.62F
FORT WAYNE     DRIZZLE   40  38  93 CALM      29.64R FOG
PERU/GRISSOM   FOG       43  43 100 SW7       29.61R VSB 1/2
MARION*        CLOUDY    43  43 100 SW3       29.65R FOG

$$
INZ028>050-201600-
CENTRAL INDIANA

CITY           SKY/WX    TMP DP  RH WIND       PRES   REMARKS
LAFAYETTE      CLOUDY    45  45 100 SW6       29.65R
KOKOMO*        CLOUDY    45  45 100 SW12      29.64R FOG
MUNCIE*        CLOUDY    50  48  93 SW12G18   29.64R
INDIANAPOLIS   DRZL/FOG  50  50 100 SW8       29.67R VSB 1/4

$$
MIZ043>046-050>051-056>058-064>065-071>073-077>080-201600-
SOUTHWEST LOWER MICHIGAN

CITY           SKY/WX    TMP DP  RH WIND       PRES   REMARKS
BATTLE CREEK   LGT RAIN  36  35  96 NE7       29.64R FOG
BENTON HARBOR  CLOUDY    39  36  89 E7        29.63S FOG
COLDWATER*     CLOUDY    36  36 100 E5        29.63R FOG
HILLSDALE*     DRIZZLE   34  32  93 E6        29.62R WCI  29
HOLLAND        MIX PCPN  36  34  92 NE9       29.64F
GRAND RAPIDS   LGT RAIN  34  31  88 NE12      29.65F FOG     WCI  25
KALAMAZOO      LGT RAIN  37  34  89 E6        29.64R FOG
STURGIS*       CLOUDY    36  35  99 E5        29.63R FOG
THREE RIVERS*  FOG       36  35  99 E3        29.65R VSB 1

$$
OHZ001>008-015>018-024>025-201600-
NORTHWEST OHIO

CITY           SKY/WX    TMP DP  RH WIND       PRES   REMARKS
DEFIANCE       CLOUDY    37  36  96 CALM      29.64R FOG
FINDLAY        CLOUDY    47  43  86 S9        29.62R
TOLEDO EXPRESS LGT RAIN  36  36 100 E5        29.64R FOG
TOLEDO METCALF CLOUDY    37  37 100 NE5       29.65R FOG
LIMA           CLOUDY    48  48 100 SW10      29.63R FOG

$$
AND FOR LAKE MICHIGAN COASTAL AND OPEN LAKE BUOY OBSERVATIONS

STATION/POSITION TEMP    WIND        PRES    VSBY  WAVE
                 AIR SEA DIR/SP/G                  HT/PER
                 (F)     (DEG/KT/KT) (MB)    (MI)  (FT/S)
CALUMET HARBOR    36      CALM  /  1 1003.6R
MICHIGAN CITY     34      40/  7/  8   N/A
BURNS HARBOR      35      80/  4/  6 1004.4R

$$
&&




USA.gov is the U.S. government's official web portal to all federal, state and local government web resources and services.